Location: Baggettsville
(36.4767°N, 86.7303°W)
Time: 23:32:11
(UTC+00:00)

CZ-4B R/B - Pass Details

Date: 29 October 2020
Orbit: 388 x 461 km, 97.6° (Epoch: 28 November)

Event Time Altitude Azimuth Distance (km) Brightness Sun altitude
Rises 23:22:06 0° 11° (N) 2,361 4.8 -6.5°
Reaches altitude 10° 23:24:07 10° 10° (N) 1,481 3.8 -6.9°
Maximum altitude 23:27:17 82° 282° (WNW) 412 1.3 -7.5°
Drops below altitude 10° 23:30:20 10° 195° (SSW) 1,436 4.3 -8.1°
Sets 23:32:16 0° 195° (SSW) 2,280 5.4 -8.5°
